RYR85AP EPPO-LKPR

Flight info

Callsign RYR85AP
Flight time 0h 40m
Altitude 28000
Route ERNOX P861 RASAN DCT ASTEL DCT GOLOP
Aircraft B738/M-SDE2E3FGHIRWXY/LB1

Departure

Time 2026-05-05 16:29
Airport Poznań-Ławica Airport (EPPO)

Arrival

Time 2026-05-05 17:10
Airport Václav Havel Airport Prague (LKPR)
Time Latitude Longitude Altitude Speed Heading
2026-05-05 16:03 52.41580 16.82816 299 ft 0 kts 192°
2026-05-05 16:22 52.41596 16.82822 299 ft 3 kts 187°
2026-05-05 16:23 52.41638 16.82826 302 ft 3 kts 178°
2026-05-05 16:23 52.41651 16.82825 301 ft 1 kts 178°
2026-05-05 16:23 52.41652 16.82825 300 ft 1 kts 178°
2026-05-05 16:25 52.41659 16.82826 301 ft 0 kts 152°
2026-05-05 16:25 52.41661 16.82824 301 ft 2 kts 152°
2026-05-05 16:26 52.41665 16.82856 301 ft 6 kts 104°
2026-05-05 16:26 52.41619 16.83160 300 ft 22 kts 103°
2026-05-05 16:27 52.41588 16.83420 298 ft 23 kts 103°
2026-05-05 16:27 52.41566 16.83673 298 ft 22 kts 94°
2026-05-05 16:27 52.41584 16.83910 296 ft 20 kts 53°
2026-05-05 16:27 52.41699 16.84022 295 ft 19 kts 20°
2026-05-05 16:28 52.41808 16.84080 300 ft 10 kts 356°
2026-05-05 16:28 52.41830 16.84052 298 ft 0 kts 287°
2026-05-05 16:28 52.41863 16.83879 303 ft 55 kts 287°
2026-05-05 16:29 52.42070 16.82808 308 ft 141 kts 287°
2026-05-05 16:29 52.42442 16.80907 540 ft 199 kts 287°
2026-05-05 16:29 52.42848 16.78608 1356 ft 216 kts 289°
2026-05-05 16:29 52.43280 16.76231 2283 ft 220 kts 288°
2026-05-05 16:30 52.43708 16.73752 2944 ft 233 kts 286°
2026-05-05 16:30 52.44142 16.71139 3739 ft 236 kts 284°
2026-05-05 16:30 52.44667 16.68540 4490 ft 243 kts 289°
2026-05-05 16:30 52.45256 16.65916 5222 ft 250 kts 288°
2026-05-05 16:31 52.45819 16.63209 6120 ft 252 kts 286°
2026-05-05 16:31 52.46358 16.60472 6977 ft 254 kts 285°
2026-05-05 16:31 52.46893 16.57684 7871 ft 255 kts 285°
2026-05-05 16:31 52.47380 16.54889 8724 ft 256 kts 275°
2026-05-05 16:32 52.47237 16.52023 9585 ft 253 kts 250°
2026-05-05 16:32 52.46371 16.49536 10376 ft 255 kts 230°
2026-05-05 16:32 52.44974 16.47696 11108 ft 263 kts 208°
2026-05-05 16:32 52.43223 16.46716 11875 ft 270 kts 192°
2026-05-05 16:33 52.41354 16.46948 12588 ft 283 kts 166°
2026-05-05 16:33 52.39597 16.48581 13227 ft 303 kts 141°
2026-05-05 16:33 52.38353 16.51581 13418 ft 336 kts 114°
2026-05-05 16:33 52.37632 16.55301 13631 ft 360 kts 109°
2026-05-05 16:34 52.36913 16.59366 13786 ft 381 kts 109°
2026-05-05 16:34 52.36143 16.63638 14045 ft 397 kts 110°
2026-05-05 16:34 52.34915 16.67645 14567 ft 395 kts 131°
2026-05-05 16:34 52.32950 16.70697 15286 ft 390 kts 149°
2026-05-05 16:35 52.30521 16.72608 15847 ft 386 kts 168°
2026-05-05 16:35 52.27872 16.73130 16432 ft 384 kts 186°
2026-05-05 16:35 52.25289 16.72240 17034 ft 382 kts 204°
2026-05-05 16:35 52.22989 16.70055 17617 ft 382 kts 220°
2026-05-05 16:36 52.21167 16.66908 18194 ft 384 kts 237°
2026-05-05 16:36 52.19905 16.63071 18753 ft 385 kts 245°
2026-05-05 16:36 52.18778 16.59054 19300 ft 388 kts 246°
2026-05-05 16:36 52.17701 16.55079 19823 ft 390 kts 246°
2026-05-05 16:37 52.16599 16.51017 20340 ft 393 kts 246°
2026-05-05 16:37 52.15476 16.46936 20873 ft 396 kts 246°
2026-05-05 16:37 52.14334 16.42843 21384 ft 398 kts 245°
2026-05-05 16:37 52.13175 16.38732 21872 ft 401 kts 245°
2026-05-05 16:38 52.12002 16.34594 22348 ft 404 kts 245°
2026-05-05 16:38 52.10820 16.30442 22827 ft 406 kts 245°
2026-05-05 16:38 52.09636 16.26291 23293 ft 409 kts 245°
2026-05-05 16:38 52.08433 16.22080 23696 ft 411 kts 245°
2026-05-05 16:39 52.07222 16.17844 24093 ft 413 kts 245°
2026-05-05 16:39 52.06017 16.13636 24491 ft 415 kts 245°
2026-05-05 16:39 52.04778 16.09325 24868 ft 417 kts 244°
2026-05-05 16:39 52.03305 16.05291 25210 ft 420 kts 233°
2026-05-05 16:40 52.01351 16.01736 25571 ft 423 kts 225°
2026-05-05 16:40 51.99069 15.98702 25918 ft 428 kts 215°
2026-05-05 16:40 51.96482 15.96265 26253 ft 431 kts 211°
2026-05-05 16:40 51.93833 15.93936 26579 ft 434 kts 211°
2026-05-05 16:41 51.91202 15.91644 26888 ft 436 kts 211°
2026-05-05 16:41 51.88542 15.89309 27286 ft 436 kts 211°
2026-05-05 16:41 51.85870 15.86938 27768 ft 434 kts 212°
2026-05-05 16:41 51.83215 15.84565 27797 ft 437 kts 212°
2026-05-05 16:42 51.80573 15.82195 27811 ft 436 kts 212°
2026-05-05 16:42 51.77915 15.79811 27812 ft 433 kts 212°
2026-05-05 16:42 51.75281 15.77454 27819 ft 433 kts 212°
2026-05-05 16:42 51.72635 15.75090 27822 ft 434 kts 212°
2026-05-05 16:43 51.70020 15.72719 27820 ft 434 kts 212°
2026-05-05 16:43 51.67401 15.70280 27820 ft 434 kts 213°
2026-05-05 16:43 51.64786 15.67821 27817 ft 434 kts 213°
2026-05-05 16:43 51.62183 15.65372 27819 ft 434 kts 213°
2026-05-05 16:44 51.59569 15.62920 27816 ft 434 kts 213°
2026-05-05 16:44 51.56970 15.60489 27817 ft 434 kts 213°
2026-05-05 16:44 51.54335 15.58035 27818 ft 434 kts 212°
2026-05-05 16:44 51.51737 15.55620 27813 ft 434 kts 212°
2026-05-05 16:45 51.49113 15.53187 27810 ft 434 kts 212°
2026-05-05 16:45 51.46485 15.50754 27810 ft 435 kts 212°
2026-05-05 16:45 51.43861 15.48327 27811 ft 435 kts 212°
2026-05-05 16:45 51.41242 15.45909 27806 ft 435 kts 212°
2026-05-05 16:46 51.38613 15.43484 27805 ft 435 kts 212°
2026-05-05 16:46 51.35995 15.41072 27809 ft 435 kts 212°
2026-05-05 16:46 51.33395 15.38680 27805 ft 435 kts 212°
2026-05-05 16:46 51.30736 15.36238 27805 ft 435 kts 212°
2026-05-05 16:47 51.28153 15.33867 27804 ft 435 kts 212°
2026-05-05 16:47 51.25527 15.31461 27808 ft 435 kts 212°
2026-05-05 16:47 51.22893 15.29049 27806 ft 435 kts 212°
2026-05-05 16:47 51.20277 15.26657 27803 ft 435 kts 212°
2026-05-05 16:48 51.17609 15.24222 27223 ft 448 kts 212°
2026-05-05 16:48 51.14891 15.21742 27070 ft 451 kts 212°
2026-05-05 16:48 51.12178 15.19275 27024 ft 443 kts 212°
2026-05-05 16:48 51.09547 15.16889 26878 ft 426 kts 212°
2026-05-05 16:49 51.07027 15.14605 26650 ft 410 kts 212°
2026-05-05 16:49 51.04573 15.12380 26441 ft 404 kts 212°
2026-05-05 16:49 51.02144 15.10097 26264 ft 404 kts 216°
2026-05-05 16:49 50.99946 15.07400 25900 ft 404 kts 224°
2026-05-05 16:50 50.97958 15.04288 25416 ft 401 kts 226°
2026-05-05 16:50 50.96003 15.01140 24912 ft 397 kts 226°
2026-05-05 16:50 50.94068 14.98037 24391 ft 394 kts 226°
2026-05-05 16:50 50.92126 14.94958 23868 ft 393 kts 225°
2026-05-05 16:51 50.90194 14.91922 23327 ft 392 kts 225°
2026-05-05 16:51 50.88245 14.88877 22670 ft 390 kts 225°
2026-05-05 16:51 50.86312 14.85886 22032 ft 388 kts 224°
2026-05-05 16:51 50.84283 14.83064 21406 ft 387 kts 221°
2026-05-05 16:52 50.82213 14.80347 20794 ft 385 kts 220°
2026-05-05 16:52 50.80150 14.77681 19867 ft 383 kts 220°
2026-05-05 16:52 50.78091 14.75021 18906 ft 382 kts 220°
2026-05-05 16:52 50.76080 14.72410 18377 ft 371 kts 220°
2026-05-05 16:53 50.74115 14.69849 17750 ft 363 kts 220°
2026-05-05 16:53 50.72191 14.67336 17109 ft 357 kts 220°
2026-05-05 16:53 50.70289 14.64848 16495 ft 353 kts 220°
2026-05-05 16:53 50.68396 14.62373 15878 ft 350 kts 220°
2026-05-05 16:54 50.66537 14.59944 15280 ft 347 kts 220°
2026-05-05 16:54 50.64692 14.57535 14683 ft 344 kts 220°
2026-05-05 16:54 50.62832 14.55111 14130 ft 341 kts 220°
2026-05-05 16:54 50.61019 14.52753 13548 ft 339 kts 220°
2026-05-05 16:55 50.59157 14.50493 12977 ft 335 kts 212°
2026-05-05 16:55 50.57762 14.49470 12580 ft 335 kts 199°
2026-05-05 16:55 50.55486 14.48728 12011 ft 333 kts 191°
2026-05-05 16:55 50.53200 14.48233 11422 ft 331 kts 189°
2026-05-05 16:56 50.51311 14.47852 10964 ft 329 kts 189°
2026-05-05 16:56 50.49032 14.47385 10468 ft 325 kts 189°
2026-05-05 16:56 50.46894 14.46930 10306 ft 311 kts 190°
2026-05-05 16:56 50.44786 14.46468 10157 ft 297 kts 190°
2026-05-05 16:57 50.42770 14.46019 10016 ft 284 kts 191°
2026-05-05 16:57 50.40848 14.45588 9907 ft 274 kts 191°
2026-05-05 16:57 50.38986 14.45171 9792 ft 266 kts 191°
2026-05-05 16:57 50.37196 14.44623 9514 ft 261 kts 204°
2026-05-05 16:58 50.35663 14.43203 9257 ft 256 kts 218°
2026-05-05 16:58 50.34247 14.41529 8971 ft 253 kts 219°
2026-05-05 16:58 50.32860 14.39861 8666 ft 250 kts 218°
2026-05-05 16:58 50.31519 14.38256 8373 ft 247 kts 218°
2026-05-05 16:59 50.30311 14.36818 8107 ft 245 kts 218°
2026-05-05 16:59 50.28988 14.35250 7788 ft 242 kts 218°
2026-05-05 16:59 50.27671 14.33697 7468 ft 239 kts 218°
2026-05-05 16:59 50.26348 14.32140 7122 ft 236 kts 217°
2026-05-05 17:00 50.25041 14.30606 6769 ft 234 kts 217°
2026-05-05 17:00 50.23745 14.29086 6471 ft 237 kts 217°
2026-05-05 17:00 50.22521 14.27327 6141 ft 239 kts 237°
2026-05-05 17:00 50.21995 14.24875 5795 ft 242 kts 267°
2026-05-05 17:01 50.22335 14.22330 5490 ft 239 kts 295°
2026-05-05 17:01 50.23198 14.20241 5411 ft 226 kts 306°
2026-05-05 17:01 50.24124 14.18362 5327 ft 211 kts 306°
2026-05-05 17:01 50.25005 14.16580 5243 ft 208 kts 306°
2026-05-05 17:02 50.25875 14.14800 5135 ft 205 kts 306°
2026-05-05 17:02 50.26730 14.13036 5027 ft 202 kts 306°
2026-05-05 17:02 50.27567 14.11303 4934 ft 198 kts 306°
2026-05-05 17:02 50.28315 14.09702 4792 ft 197 kts 304°
2026-05-05 17:03 50.29114 14.07963 4654 ft 196 kts 304°
2026-05-05 17:03 50.29895 14.06209 4496 ft 196 kts 296°
2026-05-05 17:03 50.30031 14.04160 4309 ft 192 kts 248°
2026-05-05 17:03 50.29205 14.02593 4207 ft 190 kts 211°
2026-05-05 17:04 50.28837 14.02282 4165 ft 191 kts 202°
2026-05-05 17:04 50.26700 14.02027 4073 ft 191 kts 178°
2026-05-05 17:04 50.25355 14.02085 4021 ft 191 kts 179°
2026-05-05 17:04 50.24011 14.02143 3958 ft 191 kts 179°
2026-05-05 17:05 50.22709 14.02210 3912 ft 189 kts 174°
2026-05-05 17:05 50.21526 14.03035 3792 ft 194 kts 135°
2026-05-05 17:05 50.20614 14.04585 3632 ft 194 kts 134°
2026-05-05 17:05 50.19748 14.06118 3453 ft 183 kts 130°
2026-05-05 17:06 50.18974 14.07655 3222 ft 177 kts 128°
2026-05-05 17:06 50.18221 14.09202 3099 ft 181 kts 128°
2026-05-05 17:06 50.17462 14.10767 3059 ft 180 kts 127°
2026-05-05 17:06 50.16726 14.12287 3051 ft 168 kts 127°
2026-05-05 17:07 50.16028 14.13731 2920 ft 168 kts 127°
2026-05-05 17:07 50.15337 14.15156 2708 ft 160 kts 127°
2026-05-05 17:07 50.14783 14.16303 2527 ft 149 kts 127°
2026-05-05 17:07 50.14174 14.17561 2272 ft 141 kts 127°
2026-05-05 17:08 50.13560 14.18781 2007 ft 146 kts 127°
2026-05-05 17:08 50.12960 14.20010 1823 ft 141 kts 127°
2026-05-05 17:08 50.12395 14.21207 1679 ft 136 kts 126°
2026-05-05 17:08 50.11838 14.22360 1515 ft 132 kts 127°
2026-05-05 17:09 50.11292 14.23484 1333 ft 126 kts 126°
2026-05-05 17:09 50.10785 14.24562 1174 ft 122 kts 126°
2026-05-05 17:09 50.10340 14.25490 1177 ft 85 kts 127°
2026-05-05 17:09 50.10060 14.26068 1190 ft 54 kts 127°
2026-05-05 17:10 50.09894 14.26418 1200 ft 24 kts 126°
2026-05-05 17:10 50.09868 14.26557 1205 ft 7 kts 86°
2026-05-05 17:10 50.09874 14.26628 1206 ft 7 kts 81°
2026-05-05 17:10 50.09880 14.26699 1206 ft 6 kts 81°
2026-05-05 17:11 50.09887 14.26763 1205 ft 6 kts 81°
2026-05-05 17:11 50.09894 14.26837 1205 ft 9 kts 82°
2026-05-05 17:11 50.09903 14.26932 1205 ft 10 kts 82°
2026-05-05 17:11 50.09912 14.27039 1203 ft 10 kts 83°
2026-05-05 17:12 50.09934 14.27131 1200 ft 3 kts 35°
2026-05-05 17:12 50.09953 14.27118 1198 ft 4 kts 310°
2026-05-05 17:12 50.09982 14.27050 1197 ft 10 kts 304°
2026-05-05 17:12 50.10039 14.26930 1192 ft 17 kts 307°
2026-05-05 17:13 50.10119 14.26764 1182 ft 20 kts 306°
2026-05-05 17:13 50.10201 14.26595 1175 ft 16 kts 307°
2026-05-05 17:13 50.10262 14.26466 1175 ft 15 kts 307°
2026-05-05 17:13 50.10322 14.26343 1174 ft 14 kts 307°
2026-05-05 17:14 50.10384 14.26215 1174 ft 15 kts 307°
2026-05-05 17:14 50.10443 14.26092 1172 ft 14 kts 307°
2026-05-05 17:14 50.10496 14.25981 1175 ft 14 kts 307°
2026-05-05 17:14 50.10550 14.25865 1171 ft 13 kts 303°
2026-05-05 17:15 50.10607 14.25806 1174 ft 10 kts
2026-05-05 17:15 50.10669 14.25858 1171 ft 10 kts 35°
2026-05-05 17:15 50.10709 14.25905 1173 ft 6 kts 51°
2026-05-05 17:15 50.10711 14.25953 1173 ft 1 kts 119°
2026-05-05 17:16 50.10704 14.25959 1170 ft 2 kts 147°
2026-05-05 17:16 50.10690 14.25980 1170 ft 4 kts 129°
2026-05-05 17:16 50.10679 14.26004 1172 ft 0 kts 124°